Location: Columbia
(38.9520°N, 92.3340°W)
Time: 19:19:32
(UTC-05:00)

ISS - Visible Passes

Search period start: 16 July 2019 00:00
Search period end: 26 July 2019 00:00
Orbit: 409 x 418 km, 51.6° (Epoch: 17 July)

Date Brightness Start Highest point End Pass type
(mag) Time Alt. Az. Time Alt. Az. Time Alt. Az.
16 Jul -0.4 00:42:34 10° NW 00:44:16 13° NNW 00:45:58 10° NNE visible
16 Jul -0.9 03:57:19 10° NNW 03:59:52 20° NNE 04:02:26 10° ENE visible
16 Jul -3.9 22:14:22 10° SW 22:17:42 87° SE 22:21:02 10° NE visible
16 Jul -0.8 23:52:28 10° WNW 23:54:46 17° NNW 23:57:03 10° NNE visible
17 Jul -0.5 03:08:21 10° NNW 03:10:23 15° NNE 03:12:25 10° ENE visible
17 Jul -3.6 04:44:15 10° NW 04:47:33 73° NE 04:50:51 10° ESE visible
17 Jul -3.5 21:25:17 10° SSW 21:28:29 45° SE 21:31:41 10° ENE visible
17 Jul -1.3 23:02:32 10° W 23:05:17 23° NNW 23:08:03 10° NNE visible
18 Jul -0.3 02:19:26 10° N 02:20:50 12° NNE 02:22:15 10° NE visible
18 Jul -2.4 03:55:04 10° NW 03:58:14 41° NNE 04:01:23 10° ESE visible
18 Jul -2.0 22:12:46 10° W 22:15:52 35° NNW 22:18:59 10° NE visible
18 Jul -0.2 23:52:07 10° NNW 23:53:19 11° NNW 23:54:31 10° N visible
19 Jul -0.1 01:30:42 10° N 01:31:15 10° N 01:31:47 10° NNE visible
19 Jul -1.5 03:05:58 10° NNW 03:08:50 26° NNE 03:11:41 10° E visible
19 Jul -3.3 04:42:29 10° WNW 04:45:34 36° SW 04:48:37 10° SSE visible
19 Jul -3.2 21:23:12 10° WSW 21:26:30 60° NW 21:29:49 10° NE visible
19 Jul -0.5 23:01:51 10° NW 23:03:44 14° NNW 23:05:37 10° NNE visible
20 Jul -0.9 02:16:55 10° NNW 02:18:36 17° N 02:18:36 17° N visible
20 Jul-0.804:00:01SE04:00:01SE03:51:10NWvisible
20 Jul -0.8 22:11:45 10° WNW 22:14:12 18° NNW 22:16:38 10° NNE visible
21 Jul -0.4 01:27:55 10° NNW 01:29:00 13° N 01:29:00 13° N visible
21 Jul -1.3 21:21:49 10° W 21:24:42 26° NNW 21:27:34 10° NNE visible
21 Jul -0.2 23:01:44 10° NNW 23:02:17 10° N 23:02:51 10° N visible
22 Jul -0.4 00:38:59 10° N 00:40:12 12° NNE 00:40:32 11° NNE visible
22 Jul -0.5 22:11:13 10° NW 22:12:38 12° NNW 22:14:03 10° N visible
22 Jul -0.4 23:50:27 10° N 23:50:33 10° N 23:50:38 10° N visible
23 Jul -0.7 21:20:58 10° WNW 21:23:01 15° NNW 21:25:04 10° NNE visible
24 Jul -0.5 00:36:20 10° NNW 00:37:07 13° N 00:37:07 13° N visible
24 Jul -0.8 23:47:19 10° NNW 23:49:03 13° NNE 23:49:10 13° NNE visible
25 Jul -0.5 21:20:36 10° NNW 21:21:28 11° N 21:22:19 10° N visible
25 Jul -0.7 22:58:21 10° N 22:59:23 11° N 23:00:24 10° NNE visible
